When you browse on this site, cookies collect data to enhance your experience and personalize the content and advertising you see.
Visit our Privacy Policy to learn more. By continuing to use the site, you agree to this use of cookies and data.
  • In United Kingdom
  • List of Countries
  • For 7 days
  • Water Temperature
  • Weather Map
  • Weather Widgets
  • user-avatar
    Login

    Hourly Weather Ciezkowice

    Today, 6 June, Saturday

    Time Temperature Precipitation Wind Pressure Humidity
    00:00 +14°C° 0.1 mm 1 mps 729 mmHg 97%
    01:00 +14°C° 0 mm 1 mps 730 mmHg 97%
    02:00 +13°C° 0 mm 2 mps 730 mmHg 95%
    03:00 +13°C° 0 mm 2 mps 730 mmHg 94%
    04:00 +13°C° 0 mm 2 mps 731 mmHg 92%
    05:00 +14°C° 0 mm 2 mps 731 mmHg 87%
    06:00 +16°C° 0 mm 2 mps 732 mmHg 83%
    07:00 +18°C° 0 mm 2 mps 732 mmHg 76%
    08:00 +20°C° 0 mm 2 mps 733 mmHg 69%
    09:00 +21°C° 0 mm 2 mps 733 mmHg 63%
    10:00 +24°C° 0 mm 2 mps 733 mmHg 56%
    11:00 +24°C° 0.1 mm 2 mps 733 mmHg 56%
    12:00 +25°C° 0.1 mm 2 mps 733 mmHg 56%
    13:00 +26°C° 0 mm 2 mps 733 mmHg 54%
    14:00 +26°C° 0.1 mm 2 mps 733 mmHg 57%
    15:00 +26°C° 0.1 mm 3 mps 733 mmHg 60%
    16:00 +26°C° 0.1 mm 3 mps 732 mmHg 63%
    17:00 +24°C° 0.1 mm 3 mps 732 mmHg 69%
    18:00 +21°C° 0.1 mm 3 mps 732 mmHg 76%
    19:00 +19°C° 0.1 mm 3 mps 732 mmHg 83%
    20:00 +18°C° 0 mm 3 mps 732 mmHg 86%
    21:00 +17°C° 0 mm 2 mps 733 mmHg 89%
    22:00 +16°C° 0 mm 2 mps 733 mmHg 92%
    23:00 +16°C° 0 mm 2 mps 733 mmHg 92%

    Tomorrow, 7 June, Sunday

    Time Temperature Precipitation Wind Pressure Humidity
    00:00 +15°C° 0 mm 2 mps 733 mmHg 93%
    01:00 +15°C° 0 mm 2 mps 733 mmHg 93%
    02:00 +15°C° 0 mm 1 mps 733 mmHg 93%
    03:00 +15°C° 0 mm 1 mps 732 mmHg 93%
    04:00 +15°C° 0 mm 1 mps 732 mmHg 93%
    05:00 +16°C° 0 mm 1 mps 732 mmHg 88%
    06:00 +19°C° 0 mm 1 mps 732 mmHg 84%
    07:00 +21°C° 0 mm 1 mps 732 mmHg 80%
    08:00 +21°C° 0 mm 2 mps 732 mmHg 74%
    09:00 +24°C° 0 mm 2 mps 733 mmHg 68%
    10:00 +26°C° 0 mm 3 mps 733 mmHg 62%
    11:00 +27°C° 0 mm 3 mps 733 mmHg 59%
    12:00 +28°C° 0 mm 3 mps 733 mmHg 56%
    13:00 +29°C° 0 mm 4 mps 732 mmHg 53%
    14:00 +28°C° 0.1 mm 3 mps 732 mmHg 56%
    15:00 +28°C° 0.1 mm 3 mps 732 mmHg 60%
    16:00 +27°C° 0.1 mm 3 mps 732 mmHg 64%
    17:00 +26°C° 0.1 mm 3 mps 732 mmHg 70%
    18:00 +24°C° 0.1 mm 3 mps 731 mmHg 76%
    19:00 +21°C° 0.1 mm 2 mps 731 mmHg 83%
    20:00 +20°C° 0 mm 2 mps 731 mmHg 84%
    21:00 +18°C° 0 mm 2 mps 732 mmHg 86%
    22:00 +17°C° 0 mm 3 mps 732 mmHg 88%
    23:00 +17°C° 0 mm 3 mps 732 mmHg 87%

    Day after tomorrow, 8 June, Monday

    Time Temperature Precipitation Wind Pressure Humidity
    00:00 +17°C° 0 mm 3 mps 732 mmHg 86%
    01:00 +17°C° 0 mm 3 mps 731 mmHg 85%
    02:00 +17°C° 0 mm 3 mps 731 mmHg 85%
    03:00 +17°C° 0 mm 3 mps 731 mmHg 86%
    04:00 +17°C° 0 mm 3 mps 731 mmHg 86%
    05:00 +18°C° 0 mm 3 mps 731 mmHg 83%
    06:00 +19°C° 0 mm 3 mps 731 mmHg 81%
    07:00 +20°C° 0 mm 3 mps 732 mmHg 78%
    08:00 +21°C° 0.1 mm 2 mps 732 mmHg 76%
    09:00 +23°C° 0.1 mm 2 mps 732 mmHg 73%
    10:00 +24°C° 0.1 mm 2 mps 732 mmHg 71%
    11:00 +24°C° 0.7 mm 2 mps 732 mmHg 71%
    12:00 +24°C° 0.7 mm 3 mps 732 mmHg 72%
    13:00 +25°C° 0.7 mm 4 mps 732 mmHg 73%
    14:00 +22°C° 1.6 mm 4 mps 732 mmHg 79%
    15:00 +21°C° 1.6 mm 5 mps 732 mmHg 84%
    16:00 +19°C° 1.6 mm 5 mps 733 mmHg 89%
    17:00 +17°C° 0.4 mm 5 mps 733 mmHg 91%
    18:00 +17°C° 0.4 mm 4 mps 733 mmHg 93%
    19:00 +15°C° 0.4 mm 4 mps 733 mmHg 94%
    20:00 +15°C° 0 mm 4 mps 733 mmHg 94%
    21:00 +14°C° 0 mm 4 mps 734 mmHg 94%
    22:00 +13°C° 0 mm 3 mps 734 mmHg 94%
    23:00 +13°C° 0 mm 3 mps 734 mmHg 94%

    9 June, Tuesday

    Time Temperature Precipitation Wind Pressure Humidity
    00:00 +13°C° 0 mm 3 mps 735 mmHg 95%
    01:00 +13°C° 0 mm 2 mps 735 mmHg 95%
    02:00 +13°C° 0 mm 2 mps 735 mmHg 95%
    03:00 +13°C° 0 mm 2 mps 735 mmHg 95%
    04:00 +13°C° 0 mm 2 mps 735 mmHg 95%
    05:00 +14°C° 0 mm 1 mps 735 mmHg 95%
    06:00 +14°C° 0 mm 1 mps 735 mmHg 94%
    07:00 +14°C° 0 mm 1 mps 735 mmHg 94%
    08:00 +15°C° 0 mm 1 mps 736 mmHg 91%
    09:00 +16°C° 0 mm 1 mps 736 mmHg 88%
    10:00 +18°C° 0 mm 1 mps 736 mmHg 85%
    11:00 +18°C° 0 mm 2 mps 736 mmHg 84%
    12:00 +18°C° 0 mm 2 mps 736 mmHg 82%
    13:00 +19°C° 0 mm 2 mps 736 mmHg 81%
    14:00 +19°C° 0.1 mm 2 mps 736 mmHg 82%
    15:00 +19°C° 0.1 mm 2 mps 736 mmHg 83%
    16:00 +19°C° 0.1 mm 2 mps 736 mmHg 84%
    17:00 +19°C° 0.1 mm 2 mps 736 mmHg 87%
    18:00 +18°C° 0.1 mm 2 mps 735 mmHg 90%
    19:00 +18°C° 0.1 mm 2 mps 735 mmHg 93%
    20:00 +17°C° 0.1 mm 2 mps 735 mmHg 93%
    21:00 +16°C° 0.1 mm 1 mps 736 mmHg 94%
    22:00 +16°C° 0.1 mm 1 mps 736 mmHg 95%
    23:00 +15°C° 0 mm 1 mps 735 mmHg 95%

    10 June, Wednesday

    Time Temperature Precipitation Wind Pressure Humidity
    00:00 +15°C° 0 mm 1 mps 735 mmHg 96%
    01:00 +14°C° 0 mm 1 mps 735 mmHg 96%
    02:00 +14°C° 0 mm 1 mps 735 mmHg 96%
    03:00 +14°C° 0 mm 1 mps 735 mmHg 96%
    04:00 +15°C° 0 mm 1 mps 735 mmHg 96%
    05:00 +15°C° 0 mm 1 mps 735 mmHg 96%
    06:00 +15°C° 0 mm 1 mps 735 mmHg 95%
    07:00 +16°C° 0 mm 1 mps 735 mmHg 94%
    08:00 +18°C° 0 mm 1 mps 735 mmHg 91%
    09:00 +18°C° 0 mm 1 mps 735 mmHg 88%
    10:00 +19°C° 0 mm 1 mps 735 mmHg 85%
    11:00 +20°C° 0 mm 1 mps 734 mmHg 82%
    12:00 +20°C° 0 mm 2 mps 734 mmHg 79%
    13:00 +21°C° 0 mm 2 mps 734 mmHg 75%
    14:00 +21°C° 0 mm 2 mps 734 mmHg 78%
    15:00 +21°C° 0 mm 2 mps 733 mmHg 81%
    16:00 +20°C° 0 mm 2 mps 733 mmHg 83%
    17:00 +20°C° 0.1 mm 2 mps 733 mmHg 86%
    18:00 +19°C° 0.1 mm 2 mps 733 mmHg 89%
    19:00 +20°C° 0.1 mm 1 mps 733 mmHg 92%
    20:00 +19°C° 0.1 mm 1 mps 733 mmHg 93%
    21:00 +19°C° 0.1 mm 1 mps 733 mmHg 94%
    22:00 +18°C° 0.1 mm 1 mps 733 mmHg 96%
    23:00 +18°C° 0.2 mm 1 mps 732 mmHg 96%

    11 June, Thursday

    Time Temperature Precipitation Wind Pressure Humidity
    00:00 +15°C° 0.2 mm 0 mps 732 mmHg 96%
    01:00 +15°C° 0.2 mm 0 mps 732 mmHg 97%
    02:00 +15°C° 0 mm 0 mps 732 mmHg 97%
    03:00 +14°C° 0 mm 0 mps 732 mmHg 97%
    04:00 +14°C° 0 mm 0 mps 731 mmHg 97%
    05:00 +15°C° 0 mm 0 mps 732 mmHg 96%
    06:00 +17°C° 0 mm 0 mps 732 mmHg 94%
    07:00 +18°C° 0 mm 0 mps 732 mmHg 93%
    08:00 +19°C° 0 mm 0 mps 732 mmHg 89%
    09:00 +20°C° 0 mm 0 mps 732 mmHg 85%
    10:00 +21°C° 0 mm 0 mps 732 mmHg 81%
    11:00 +21°C° 0.3 mm 0 mps 732 mmHg 80%
    12:00 +24°C° 0.3 mm 1 mps 731 mmHg 78%
    13:00 +25°C° 0.3 mm 1 mps 731 mmHg 77%
    14:00 +25°C° 1.1 mm 1 mps 731 mmHg 77%
    15:00 +25°C° 1.1 mm 1 mps 731 mmHg 77%
    16:00 +25°C° 1.1 mm 1 mps 731 mmHg 77%
    17:00 +24°C° 0.6 mm 1 mps 731 mmHg 80%
    18:00 +23°C° 0.6 mm 1 mps 731 mmHg 84%
    19:00 +21°C° 0.6 mm 1 mps 730 mmHg 87%
    20:00 +21°C° 0.1 mm 1 mps 730 mmHg 88%
    21:00 +20°C° 0.1 mm 1 mps 731 mmHg 88%
    22:00 +19°C° 0.1 mm 1 mps 731 mmHg 89%
    23:00 +18°C° 0 mm 1 mps 730 mmHg 90%
    Show more